Surface/Precipitation History
11/21/2014 22:47  to  11/22/2014 22:47
Change End Date:
Date/Time
(MST)
Sf
Temp Chem Water Layer Surface Precipitation
Sf Sub Frz Factor Pct Depth IcePct Cond Salin Type Intens Accum Rate
11/22/2014 22:26 Dry 17.6F - - - - - - 1 mhos 277 None None - -
11/22/2014 22:19 Dry 17.6F - - - - - - 1 mhos 280 None None - -
11/22/2014 22:09 Dry 17.6F - - - - - - 1 mhos 274 None None - -
11/22/2014 21:59 Dry 17.8F - - - - - - 1 mhos 281 None None - -
11/22/2014 21:55 Dry 17.8F - - - - - - 1 mhos 275 None None - -
11/22/2014 21:49 Dry 17.8F - - - - - - 1 mhos 282 None None - -
11/22/2014 21:39 Dry 18.0F - - - - - - 1 mhos 280 None None - -
11/22/2014 21:29 Dry 18.3F - - - - - - 1 mhos 280 None None - -
11/22/2014 21:25 Dry 18.3F - - - - - - 1 mhos 282 None None - -
11/22/2014 21:19 Ice Watch 18.3F - - 5 - - - 1 mhos 282 None None - -
11/22/2014 21:09 Ice Watch 18.5F - - 5 - - - 1 mhos 284 None None - -
11/22/2014 20:59 Ice Watch 18.9F - - 5 - - - 1 mhos 271 None None - -
11/22/2014 20:55 Ice Watch 18.7F - - 5 - - - 1 mhos 273 None None - -
11/22/2014 20:49 Ice Watch 18.9F - - 5 - - - 1 mhos 268 None None - -
11/22/2014 20:38 Ice Watch 19.0F - - 5 - - - 1 mhos 258 None None - -
Date/Time
(MST)
Sf
Temp Chem Water Layer Surface Precipitation
Sf Sub Frz Factor Pct Depth IcePct Cond Salin Type Intens Accum Rate
11/22/2014 20:28 Dry 19.0F - - - - - - 1 mhos 264 None None - -
11/22/2014 20:25 Dry 19.2F - - - - - - 1 mhos 259 None None - -
11/22/2014 20:18 Dry 19.2F - - - - - - 1 mhos 260 None None - -
11/22/2014 20:08 Dry 19.2F - - - - - - 1 mhos 262 None None - -
11/22/2014 19:58 Dry 19.6F - - - - - - 1 mhos 261 None None - -
11/22/2014 19:55 Dry 19.8F - - - - - - 1 mhos 258 None None - -
11/22/2014 19:48 Ice Watch 19.9F - - 20 - - - 1 mhos 250 None None - -
11/22/2014 19:38 Dry 20.1F - - - - - - 1 mhos 245 None None - -
11/22/2014 19:28 Dry 20.3F - - - - - - 1 mhos 255 None None - -
11/22/2014 19:25 Dry 20.3F - - - - - - 1 mhos 255 None None - -
11/22/2014 19:18 Dry 20.7F - - - - - - 1 mhos 245 None None - -
11/22/2014 19:10 Dry 20.8F - - - - - - 1 mhos 247 None None - -
11/22/2014 19:08 Dry 20.8F - - - - - - 1 mhos 246 None None - -
11/22/2014 18:58 Dry 21.0F - - - - - - 1 mhos 246 None None - -
11/22/2014 18:55 Dry 21.0F - - - - - - 1 mhos 247 None None - -
Date/Time
(MST)
Sf
Temp Chem Water Layer Surface Precipitation
Sf Sub Frz Factor Pct Depth IcePct Cond Salin Type Intens Accum Rate
11/22/2014 18:48 Dry 21.2F - - - - - - 1 mhos 251 None None - -
11/22/2014 18:40 Dry 21.4F - - - - - - 1 mhos 243 None None - -
11/22/2014 18:38 Dry 21.4F - - - - - - 1 mhos 251 None None - -
11/22/2014 18:28 Dry 21.7F - - - - - - 1 mhos 242 None None - -
11/22/2014 18:25 Dry 21.9F - - - - - - 1 mhos 248 None None - -
11/22/2014 18:18 Dry 21.9F - - - - - - 1 mhos 243 None None - -
11/22/2014 18:08 Dry 22.1F - - - - - - 1 mhos 244 None None - -
11/22/2014 17:58 Dry 22.5F - - - - - - 1 mhos 239 None None - -
11/22/2014 17:55 Dry 22.6F - - - - - - 1 mhos 240 None None - -
11/22/2014 17:48 Ice Watch 23.0F - - 80 - - - 1 mhos 236 None None - -
11/22/2014 17:38 Dry 23.2F - - - - - - 1 mhos 236 None None - -
11/22/2014 17:28 Dry 23.5F - - - - - - 1 mhos 233 None None - -
11/22/2014 17:25 Dry 23.7F - - - - - - 1 mhos 234 None None - -
11/22/2014 17:17 Dry 23.9F - - - - - - 1 mhos 233 None None - -
11/22/2014 17:10 Dry 24.3F - - - - - - 1 mhos 231 None None - -
Date/Time
(MST)
Sf
Temp Chem Water Layer Surface Precipitation
Sf Sub Frz Factor Pct Depth IcePct Cond Salin Type Intens Accum Rate
11/22/2014 17:07 Dry 24.4F - - - - - - 1 mhos 231 None None - -
11/22/2014 16:57 Dry 25.0F - - - - - - 1 mhos 230 None None - -
11/22/2014 16:55 Dry 25.2F - - - - - - 1 mhos 230 None None - -
11/22/2014 16:47 Dry 25.5F - - - - - - 1 mhos 230 None None - -
11/22/2014 16:40 Dry 26.2F - - - - - - 1 mhos 229 None None - -
11/22/2014 16:37 Dry 26.4F - - - - - - 1 mhos 227 None None - -
11/22/2014 16:27 Ice Watch 27.7F - - 45 - - - 2 mhos 227 None None - -
11/22/2014 16:25 Ice Watch 27.9F - - 50 - - - 2 mhos 226 None None - -
11/22/2014 16:17 Dry 28.8F - - - - - - 2 mhos 224 None None - -
11/22/2014 16:07 Ice Warning 29.1F - 32F 60 1% - 96% 2 mhos 255 None None - -
11/22/2014 15:57 Ice Warning 29.8F - 32F 80 1% - 90% 4 mhos 434 None None - -
11/22/2014 15:56 Ice Warning 29.8F - 32F 85 2% - 90% 4 mhos 460 None None - -
11/22/2014 15:47 Chemically Wet 31.3F - 32F 95 2% - 71% 4 mhos 470 None None - -
11/22/2014 15:37 Wet 32.2F - 32F 95 2% 0.00 in 0% 5 mhos 474 None None - -
11/22/2014 15:27 Wet 32.5F - 32F 95 1% 0.00 in 0% 4 mhos 450 None None - -
Date/Time
(MST)
Sf
Temp Chem Water Layer Surface Precipitation
Sf Sub Frz Factor Pct Depth IcePct Cond Salin Type Intens Accum Rate
11/22/2014 15:25 Wet 32.9F - 32F 95 1% 0.00 in 0% 4 mhos 449 None None - -
11/22/2014 15:17 Chemically Wet 31.6F - 32F 95 1% - 51% 4 mhos 449 None None - -
11/22/2014 15:07 Chemically Wet 31.8F - 32F 95 1% 0.00 in 0% 4 mhos 435 None None - -
11/22/2014 14:57 Wet 32.5F - 31F 95 2% 0.00 in 0% 6 mhos 613 None None - -
11/22/2014 14:55 Wet 32.4F - 31F 95 2% 0.00 in 0% 6 mhos 606 None None - -
11/22/2014 14:47 Ice Warning 31.5F - 32F 95 0% - 97% 0 mhos 34 None None - -
11/22/2014 14:40 Ice Warning 30.7F - 32F 95 0% - 100% 0 mhos 13 None None - -
11/22/2014 14:37 Ice Warning 30.9F - 32F 95 0% - 100% 0 mhos 12 None None - -
11/22/2014 14:27 Ice Warning 31.1F - 32F 95 0% - 100% 0 mhos 9 None None - -
11/22/2014 14:26 Ice Warning 31.1F - 32F 95 0% - 100% 0 mhos 9 None None - -
11/22/2014 14:17 Ice Warning 31.6F - 32F 95 0% - 99% 0 mhos 6 None None - -
11/22/2014 14:06 Ice Warning 31.5F - 32F 80 0% - 100% 0 mhos 5 None None - -
11/22/2014 13:56 Ice Warning 31.1F - 32F 80 0% - 100% 0 mhos 6 None None - -
11/22/2014 13:55 Ice Warning 31.1F - 32F 95 0% - 100% 0 mhos 6 None None - -
11/22/2014 13:46 Ice Warning 31.5F - 32F 25 0% - 100% 0 mhos 6 None None - -
Date/Time
(MST)
Sf
Temp Chem Water Layer Surface Precipitation
Sf Sub Frz Factor Pct Depth IcePct Cond Salin Type Intens Accum Rate
11/22/2014 13:36 Wet 32.5F - 32F 95 1% 0.00 in 0% 4 mhos 367 None None - -
11/22/2014 13:26 Wet 32.5F - 32F 80 1% 0.00 in 0% 4 mhos 352 None None - -
11/22/2014 13:26 Wet 32.7F - 32F 95 1% 0.00 in 0% 4 mhos 414 None None - -
11/22/2014 13:16 Wet 34.7F - 31F 95 2% 0.00 in 0% 7 mhos 698 None None - -
11/22/2014 13:06 Wet 38.7F - 31F 95 3% 0.00 in 0% 10 mhos 944 Yes - - -
11/22/2014 12:56 Wet 37.9F - 31F 95 4% 0.00 in 0% 12 mhos 1151 Yes - - -
11/22/2014 12:56 Wet 37.4F - 31F 95 4% 0.00 in 0% 12 mhos 1121 Yes - - -
11/22/2014 12:46 Wet 35.8F - 31F 95 4% 0.00 in 0% 11 mhos 1104 Yes - - -
11/22/2014 12:36 Wet 35.8F - 32F 95 2% 0.00 in 0% 5 mhos 476 Yes - - -
11/22/2014 12:26 Wet 38.3F - 31F 95 3% 0.00 in 0% 9 mhos 817 None None - -
11/22/2014 12:26 Wet 37.8F - 31F 95 3% 0.00 in 0% 10 mhos 1003 None None - -
11/22/2014 12:16 Wet 35.6F - 32F 95 1% 0.00 in 0% 4 mhos 393 None None - -
11/22/2014 12:06 Wet 34.2F - 31F 95 3% 0.00 in 0% 9 mhos 916 None None - -
11/22/2014 11:56 Wet 33.1F - 32F 95 2% 0.00 in 0% 5 mhos 473 Yes - - -
11/22/2014 11:55 Wet 32.7F - 31F 95 2% 0.00 in 0% 6 mhos 587 Yes - - -
Date/Time
(MST)
Sf
Temp Chem Water Layer Surface Precipitation
Sf Sub Frz Factor Pct Depth IcePct Cond Salin Type Intens Accum Rate
11/22/2014 11:46 Chemically Wet 31.8F - 32F 95 1% 0.00 in 0% 3 mhos 273 Yes - - -
11/22/2014 11:36 Chemically Wet 31.8F - 32F 95 1% - 68% 2 mhos 168 Yes - - -
11/22/2014 11:26 Ice Warning 31.6F - 32F 95 0% - 99% 0 mhos 9 Yes - - -
11/22/2014 11:26 Ice Warning 31.6F - 32F 95 0% - 99% 0 mhos 9 Yes - - -
11/22/2014 11:16 Wet 32.2F - 32F 65 0% 0.00 in 0% 1 mhos 53 Yes - - -
11/22/2014 11:06 Wet 35.1F - 32F 95 2% 0.00 in 0% 5 mhos 504 None None - -
11/22/2014 10:56 Wet 34.9F - 32F 95 1% 0.00 in 0% 5 mhos 449 None None - -
11/22/2014 10:55 Wet 35.1F - 32F 95 1% 0.00 in 0% 4 mhos 436 None None - -
11/22/2014 10:46 Wet 34.5F - 32F 95 1% 0.00 in 0% 4 mhos 405 Yes - - -
11/22/2014 10:36 Wet 34.3F - 32F 95 1% 0.00 in 0% 5 mhos 443 Yes - - -
11/22/2014 10:25 Wet 34.2F - 31F 95 3% 0.00 in 0% 8 mhos 779 Yes - - -
11/22/2014 10:25 Wet 34.0F - 31F 95 3% 0.00 in 0% 8 mhos 778 Yes - - -
11/22/2014 10:15 Wet 35.2F - 31F 95 5% 0.00 in 0% 15 mhos 1528 None None - -
11/22/2014 10:10 Wet 35.2F - 31F 95 4% 0.00 in 0% 13 mhos 1314 Yes - - -
11/22/2014 10:05 Wet 35.4F - 31F 95 5% 0.00 in 0% 16 mhos 1648 Yes - - -
Date/Time
(MST)
Sf
Temp Chem Water Layer Surface Precipitation
Sf Sub Frz Factor Pct Depth IcePct Cond Salin Type Intens Accum Rate
11/22/2014 09:55 Wet 32.4F - 31F 95 3% 0.00 in 0% 9 mhos 886 Yes - - -
11/22/2014 09:45 Chemically Wet 32.0F - 31F 95 5% 0.00 in 0% 14 mhos 1459 None None - -
11/22/2014 09:40 Chemically Wet 30.9F - 30F 95 7% 0.00 in 0% 19 mhos 2021 None None - -
11/22/2014 09:35 Ice Warning 30.0F - 32F 95 2% - 89% 4 mhos 459 None None - -
11/22/2014 09:25 Ice Warning 30.6F - 32F 95 1% - 91% 3 mhos 305 None None - -
11/22/2014 09:15 Ice Warning 29.8F - 32F 95 0% - 98% 1 mhos 111 None None - -
11/22/2014 09:10 Ice Warning 29.7F - 32F 95 0% - 99% 0 mhos 55 None None - -
11/22/2014 09:05 Ice Warning 29.3F - 32F 95 0% - 99% 0 mhos 36 None None - -
11/22/2014 08:55 Ice Warning 28.6F - 32F 90 0% - 100% 0 mhos 24 None None - -
11/22/2014 08:55 Ice Warning 28.6F - 32F 90 0% - 100% 0 mhos 24 None None - -
11/22/2014 08:45 Ice Warning 28.8F - 32F 35 0% - 100% 0 mhos 19 None None - -
11/22/2014 08:40 Ice Warning 28.8F - 32F 50 0% - 100% 0 mhos 18 Yes - - -
11/22/2014 08:35 Ice Warning 28.6F - 32F 30 0% - 100% 0 mhos 19 Yes - - -
11/22/2014 08:25 Ice Warning 28.4F - 32F 25 0% - 100% 0 mhos 18 Yes - - -
11/22/2014 08:25 Ice Warning 28.4F - 32F 25 0% - 100% 0 mhos 18 Yes - - -
Date/Time
(MST)
Sf
Temp Chem Water Layer Surface Precipitation
Sf Sub Frz Factor Pct Depth IcePct Cond Salin Type Intens Accum Rate
11/22/2014 08:15 Ice Warning 28.2F - 32F 30 0% - 100% 0 mhos 18 Yes - - -
11/22/2014 08:10 Ice Warning 28.0F - 32F 30 0% - 100% 0 mhos 18 Yes - - -
11/22/2014 08:05 Ice Warning 28.0F - 32F 85 0% - 100% 0 mhos 23 Yes - - -
11/22/2014 07:55 Ice Warning 28.0F - 32F 60 0% - 100% 0 mhos 20 None None - -
11/22/2014 07:55 Ice Warning 28.0F - 32F 60 0% - 100% 0 mhos 20 None None - -
11/22/2014 07:45 Ice Warning 28.0F - 32F 45 0% - 100% 0 mhos 21 Yes - - -
11/22/2014 07:40 Ice Warning 28.0F - 32F 40 0% - 100% 0 mhos 22 None None - -
11/22/2014 07:35 Ice Warning 27.9F - 32F 50 0% - 100% 0 mhos 22 Yes - - -
11/22/2014 07:25 Ice Warning 27.7F - 32F 70 0% - 100% 0 mhos 24 Yes - - -
11/22/2014 07:25 Ice Warning 27.7F - 32F 75 0% - 100% 0 mhos 24 Yes - - -
11/22/2014 07:15 Ice Warning 27.7F - 32F 90 0% - 100% 0 mhos 25 Yes - - -
11/22/2014 07:05 Ice Warning 27.7F - 32F 90 0% - 100% 0 mhos 26 Yes - - -
11/22/2014 06:55 Ice Warning 27.7F - 32F 95 0% - 100% 0 mhos 26 None None - -
11/22/2014 06:55 Ice Warning 27.7F - 32F 95 0% - 100% 0 mhos 26 None None - -
11/22/2014 06:45 Ice Warning 27.7F - 32F 95 0% - 100% 0 mhos 26 Yes - - -
Date/Time
(MST)
Sf
Temp Chem Water Layer Surface Precipitation
Sf Sub Frz Factor Pct Depth IcePct Cond Salin Type Intens Accum Rate
11/22/2014 06:35 Ice Warning 27.7F - 32F 95 0% - 100% 0 mhos 26 Yes - - -
11/22/2014 06:25 Ice Warning 27.7F - 32F 95 0% - 100% 0 mhos 27 None None - -
11/22/2014 06:24 Ice Warning 27.7F - 32F 95 0% - 100% 0 mhos 27 None None - -
11/22/2014 06:14 Ice Warning 27.7F - 32F 95 0% - 100% 0 mhos 28 Yes - - -
11/22/2014 06:04 Ice Warning 27.7F - 32F 95 0% - 100% 0 mhos 29 None None - -
11/22/2014 05:55 Ice Warning 27.7F - 32F 95 0% - 100% 0 mhos 31 Yes - - -
11/22/2014 05:54 Ice Warning 27.7F - 32F 95 0% - 100% 0 mhos 31 Yes - - -
11/22/2014 05:44 Ice Warning 27.7F - 32F 95 0% - 100% 0 mhos 37 Yes - - -
11/22/2014 05:34 Ice Warning 27.7F - 32F 60 0% - 100% 0 mhos 38 Yes - - -
11/22/2014 05:25 Ice Warning 27.7F - 32F 75 0% - 100% 0 mhos 39 None None - -
11/22/2014 05:24 Ice Warning 27.7F - 32F 75 0% - 100% 0 mhos 39 None None - -
11/22/2014 05:14 Ice Warning 27.5F - 32F 80 0% - 100% 0 mhos 40 None None - -
11/22/2014 05:04 Ice Warning 27.5F - 32F 85 0% - 99% 0 mhos 42 None None - -
11/22/2014 04:55 Ice Warning 27.3F - 32F 90 0% - 99% 0 mhos 47 None None - -
11/22/2014 04:54 Ice Warning 27.5F - 32F 90 0% - 99% 0 mhos 47 None None - -
Date/Time
(MST)
Sf
Temp Chem Water Layer Surface Precipitation
Sf Sub Frz Factor Pct Depth IcePct Cond Salin Type Intens Accum Rate
11/22/2014 04:44 Ice Warning 27.3F - 32F 95 0% - 99% 0 mhos 57 None None - -
11/22/2014 04:34 Ice Warning 27.5F - 32F 95 0% - 99% 1 mhos 86 Yes - - -
11/22/2014 04:25 Ice Warning 27.5F - 32F 95 0% - 99% 1 mhos 117 None None - -
11/22/2014 04:24 Ice Warning 27.5F - 32F 95 0% - 99% 1 mhos 123 None None - -
11/22/2014 04:14 Ice Warning 27.5F - 32F 95 0% - 98% 1 mhos 132 None None - -
11/22/2014 04:04 Ice Warning 27.1F - 32F 95 1% - 98% 1 mhos 168 None None - -
11/22/2014 03:56 Ice Warning 27.3F - 32F 95 1% - 98% 1 mhos 196 None None - -
11/22/2014 03:54 Ice Warning 27.1F - 32F 95 1% - 98% 1 mhos 202 None None - -
11/22/2014 03:44 Ice Warning 27.3F - 32F 95 1% - 98% 1 mhos 174 None None - -
11/22/2014 03:34 Ice Warning 27.1F - 32F 95 1% - 98% 1 mhos 165 None None - -
11/22/2014 03:25 Ice Warning 27.3F - 32F 95 1% - 98% 1 mhos 159 None None - -
11/22/2014 03:24 Ice Warning 27.3F - 32F 95 1% - 98% 1 mhos 160 None None - -
11/22/2014 03:14 Ice Warning 27.1F - 32F 95 1% - 98% 1 mhos 163 None None - -
11/22/2014 03:04 Ice Warning 27.0F - 32F 95 1% - 98% 1 mhos 165 None None - -
11/22/2014 02:55 Ice Warning 26.8F - 32F 95 1% - 98% 1 mhos 169 None None - -
Date/Time
(MST)
Sf
Temp Chem Water Layer Surface Precipitation
Sf Sub Frz Factor Pct Depth IcePct Cond Salin Type Intens Accum Rate
11/22/2014 02:54 Ice Warning 26.8F - 32F 95 1% - 98% 1 mhos 169 None None - -
11/22/2014 02:44 Ice Warning 26.6F - 32F 95 1% - 98% 1 mhos 172 None None - -
11/22/2014 02:40 Ice Warning 26.4F - 32F 95 1% - 98% 1 mhos 174 None None - -
11/22/2014 02:33 Ice Warning 26.2F - 32F 95 1% - 98% 1 mhos 177 None None - -
11/22/2014 02:26 Ice Warning 26.1F - 32F 95 1% - 98% 1 mhos 174 None None - -
11/22/2014 02:23 Ice Warning 25.9F - 32F 95 1% - 98% 1 mhos 173 None None - -
11/22/2014 02:13 Ice Warning 25.9F - 32F 95 1% - 98% 1 mhos 168 None None - -
11/22/2014 02:03 Ice Warning 26.4F - 32F 95 1% - 98% 1 mhos 165 None None - -
11/22/2014 01:55 Ice Warning 26.6F - 32F 95 1% - 98% 1 mhos 169 None None - -
11/22/2014 01:53 Ice Warning 27.0F - 32F 95 1% - 98% 1 mhos 168 None None - -
11/22/2014 01:43 Ice Warning 27.0F - 32F 95 1% - 98% 1 mhos 182 None None - -
11/22/2014 01:33 Ice Warning 26.8F - 32F 95 1% - 98% 1 mhos 197 None None - -
11/22/2014 01:25 Ice Warning 26.8F - 32F 95 1% - 98% 1 mhos 211 None None - -
11/22/2014 01:23 Ice Warning 26.8F - 32F 95 1% - 98% 1 mhos 214 None None - -
11/22/2014 01:13 Ice Warning 26.8F - 32F 95 1% - 98% 1 mhos 224 None None - -
Date/Time
(MST)
Sf
Temp Chem Water Layer Surface Precipitation
Sf Sub Frz Factor Pct Depth IcePct Cond Salin Type Intens Accum Rate
11/22/2014 01:03 Ice Warning 26.8F - 32F 95 1% - 97% 2 mhos 237 None None - -
11/22/2014 00:56 Ice Warning 26.8F - 32F 95 1% - 97% 2 mhos 244 None None - -
11/22/2014 00:53 Ice Warning 26.6F - 32F 95 1% - 97% 2 mhos 249 None None - -
11/22/2014 00:43 Ice Warning 26.6F - 32F 95 1% - 97% 2 mhos 260 None None - -
11/22/2014 00:33 Ice Warning 26.8F - 32F 95 1% - 97% 2 mhos 274 None None - -
11/22/2014 00:25 Ice Warning 26.6F - 32F 95 1% - 97% 2 mhos 296 None None - -
11/22/2014 00:23 Ice Warning 26.4F - 32F 95 1% - 97% 2 mhos 292 None None - -
11/22/2014 00:13 Ice Warning 26.4F - 32F 95 1% - 97% 2 mhos 304 None None - -
11/22/2014 00:10 Ice Warning 26.4F - 32F 95 1% - 97% 2 mhos 302 None None - -
11/22/2014 00:03 Ice Warning 27.0F - 32F 95 1% - 97% 2 mhos 295 None None - -
11/22/2014 00:00 Ice Warning 27.1F - 32F 95 1% - 97% 2 mhos 288 - - - -
11/21/2014 23:53 Ice Warning 27.3F - 32F 95 1% - 97% 2 mhos 269 None None - -
11/21/2014 23:43 Ice Warning 27.5F - 32F 95 1% - 97% 2 mhos 236 None None - -
11/21/2014 23:33 Ice Warning 27.5F - 32F 95 1% - 98% 1 mhos 152 - - - -
11/21/2014 23:25 Ice Warning 27.5F - 32F 95 0% - 98% 1 mhos 128 None None - -
Date/Time
(MST)
Sf
Temp Chem Water Layer Surface Precipitation
Sf Sub Frz Factor Pct Depth IcePct Cond Salin Type Intens Accum Rate
11/21/2014 23:23 Ice Warning 27.5F - 32F 95 0% - 98% 1 mhos 130 None None - -
11/21/2014 23:13 Ice Warning 27.7F - 32F 95 0% - 98% 1 mhos 124 None None - -
11/21/2014 23:10 Ice Warning 27.7F - 32F 95 0% - 98% 1 mhos 128 None None - -
11/21/2014 23:03 Ice Warning 27.7F - 32F 95 0% - 98% 1 mhos 128 None None - -
11/21/2014 22:55 Ice Warning 27.7F - 32F 95 0% - 98% 1 mhos 123 None None - -
11/21/2014 22:53 Ice Warning 27.9F - 32F 95 0% - 98% 1 mhos 121 None None - -
Change End Date:
Copyright © 1998-2005 Surface Systems, Inc.
All Rights Reserved
Send comments about the data to:
SCAN Web ® is a registered trademark of Surface Systems, Inc.
SCAN Web Version 5.6